Tracking 30990 objects as of 8-Jul-2025
HD Live streaming from Space Station
objects crossing your sky now

CZ-4C R/B

Track CZ-4C R/B now!
10-day predictions
CZ-4C R/B is classified as:


NORAD ID: 39211
Int'l Code: 2013-037D
Perigee: 431.9 km
Apogee: 542.8 km
Inclination: 98.0 °
Period: 94.2 minutes
Semi major axis: 6858 km
RCS: Unknown
Launch date: July 19, 2013
Source: People's Republic of China (PRC)
Launch site: Taiyaun Space Center, China (TSC)

Note: This is a ROCKET BODY
Your satellite tracking list
Your tracking list is empty




NASA's NSSDC Master Catalog

Two Line Element Set (TLE):
1 39211U 13037D   25189.17130172  .00008352  00000-0  27571-3 0  9990
2 39211  97.9815  81.2727 0080835  47.9156 312.8920 15.28530443658234
Source of the keplerian elements: AFSPC